Weather History for KHVN - May, 2013

Change the Weather History Date:

Wednesday, May 1, 2013

  Actual Average Record
Temperature  
Mean Temperature 52 °F -  
Max Temperature 66 °F 62 °F 81 °F (1985)
Min Temperature 39 °F 45 °F 30 °F (2008)
Degree Days  
Heating Degree Days 14    
Growing Degree Days 2 (Base 50)    
Moisture  
Dew Point 40 °F    
Average Humidity 64    
Maximum Humidity 86    
Minimum Humidity 36    
Precipitation  
Precipitation 0.00 in - - ()
Sea Level Pressure  
Sea Level Pressure 30.44 in    
Wind  
Wind Speed 3 mph (ESE)    
Max Wind Speed 13 mph    
Max Gust Speed 17 mph    
Visibility 10 miles    
Events      
Averages and records for this station are not official NWS values.
T = Trace of Precipitation, MM = Missing Value Source: NWS Daily Summary

Daily Weather History Graph

Daily Weather History Graph

Search for Another Location

Airport or City:

Trip Planner

Search our weather history database for the weather conditions in past years. The results will help you decide how hot, cold, wet, or windy it might be!

Date:

Astronomy

May. 01, 2013 Rise Set
Actual Time 5:48 AM EDT 7:49 PM EDT
Civil Twilight 5:18 AM EDT 8:19 PM EDT
Nautical Twilight 4:42 AM EDT 8:56 PM EDT
Astronomical Twilight 4:02 AM EDT 9:36 PM EDT
Moon 12:56 AM EDT (5/1) 11:23 AM EDT (5/1)
Length of Visible Light 15h 00m
Length of Day
14h 00m
Waning Gibbous, 59% of the Moon is Illuminated
May 1
Waning Gibbous
May 2
Last Quarter
May 9
New
May 18
First Quarter
May 25
Full

Hourly Weather History & Observations

Time (EDT) Temp. Windchill Dew Point Humidity Pressure Visibility Wind Dir Wind Speed Gust Speed Precip Events Conditions
12:53 AM 43.0 °F - 35.1 °F 74% 30.35 in 10.0 mi Calm Calm - N/A   Clear
1:53 AM 42.1 °F - 35.1 °F 76% 30.36 in 10.0 mi Calm Calm - N/A   Clear
2:53 AM 41.0 °F - 34.0 °F 76% 30.37 in 10.0 mi Calm Calm - N/A   Clear
3:53 AM 39.0 °F - 34.0 °F 82% 30.38 in 10.0 mi Calm Calm - N/A   Clear
4:53 AM 39.9 °F - 33.1 °F 77% 30.40 in 10.0 mi Calm Calm - N/A   Clear
5:53 AM 39.9 °F 37.8 °F 33.1 °F 77% 30.40 in 10.0 mi North 3.5 mph - N/A   Clear
6:53 AM 43.0 °F - 34.0 °F 71% 30.43 in 10.0 mi Calm Calm - N/A   Clear
7:53 AM 52.0 °F - 35.1 °F 53% 30.44 in 10.0 mi NNE 4.6 mph - N/A   Clear
8:53 AM 57.9 °F - 30.9 °F 36% 30.44 in 10.0 mi Variable 5.8 mph - N/A   Clear
9:53 AM 61.0 °F - 39.0 °F 44% 30.46 in 10.0 mi ESE 5.8 mph - N/A   Clear
10:53 AM 61.0 °F - 43.0 °F 52% 30.46 in 10.0 mi SSE 9.2 mph - N/A   Clear
11:53 AM 61.0 °F - 45.0 °F 56% 30.46 in 10.0 mi SE 12.7 mph - N/A   Clear
12:53 PM 61.0 °F - 44.1 °F 54% 30.45 in 10.0 mi SSE 11.5 mph - N/A   Partly Cloudy
1:53 PM 64.0 °F - 43.0 °F 46% 30.45 in 10.0 mi SE 11.5 mph - N/A   Partly Cloudy
2:53 PM 64.0 °F - 43.0 °F 46% 30.45 in 10.0 mi East 11.5 mph - N/A   Partly Cloudy
3:53 PM 64.0 °F - 43.0 °F 46% 30.44 in 10.0 mi SE 8.1 mph 17.3 mph N/A   Partly Cloudy
4:53 PM 63.0 °F - 44.1 °F 50% 30.44 in 10.0 mi ESE 6.9 mph - N/A   Partly Cloudy
5:53 PM 60.1 °F - 45.0 °F 57% 30.45 in 10.0 mi ESE 9.2 mph - N/A   Clear
6:53 PM 57.9 °F - 45.0 °F 62% 30.46 in 10.0 mi ESE 5.8 mph - N/A   Clear
7:53 PM 54.0 °F - 45.0 °F 72% 30.47 in 10.0 mi Calm Calm - N/A   Clear
8:53 PM 52.0 °F - 45.0 °F 77% 30.48 in 10.0 mi ESE 3.5 mph - N/A   Clear
9:53 PM 48.9 °F - 43.0 °F 80% 30.49 in 10.0 mi Calm Calm - N/A   Clear
10:53 PM 48.9 °F - 43.0 °F 80% 30.48 in 10.0 mi Calm Calm - N/A   Clear
11:53 PM 46.0 °F - 42.1 °F 86% 30.47 in 10.0 mi Calm Calm - N/A   Clear